Вернуться в каталог

STARLINK-37706

АктивенСвязьSSO
NORAD 69127·PAYLOAD·🇺🇸 United States

Запущен May 20, 2026 с Vandenberg Space Force Base

Loading…

Ближайшие Пролёты (ближайшие 24 часа)

TLE

СвежийSource: CelesTrak SupGP

Эпоха: Sep 15, 2026, 03:32 UTC

1 69127C 26110D   26258.14770833 -.00044459  00000+0 -13799-2 0  2587
2 69127  97.2855  93.2251 0001694  90.7509 212.8848 15.33466965    17

Отслеживайте STARLINK-37706 в реальном времени с AllMySat

Download on the App Store